Location: LDNL
(36.4545°S, 141.6685°E)
Time: 22:09:30
(UTC+11:00)

ISS - Pass Details

Date: 10 December 2021
Orbit: 413 x 422 km, 51.6° (Epoch: 22 January)

Event Time Altitude Azimuth Distance (km) Brightness Sun altitude
Exits shadow 00:03:18 11° 148° (SSE) 1,424 -0.7 -27.4°
Drops below altitude 10° 00:03:32 10° 146° (SSE) 1,512 -0.6 -27.5°
Sets 00:05:46 0° 137° (SE) 2,381 0.4 -27.6°
